Simultaneous Nadir Overpasses (SNOs) Predictions

Prediction of SNOs between GOES-14 and NOAA-20 Satellite Orbit:

Table of predicted SNOs for the next 14.0 days since TLE Epoch: 4/25/2025
Index Date Time (GOES-14) GOES-14 Lat,Lon NOAA-20 Lat,Lon Distance(km) Time Diff (sec)
1 04/25/2025 20:53:34 -0.29,-108.37 0.00,-112.15 422.58 80
2 04/26/2025 20:34:32 -0.32,-108.37 -0.10,-107.38 113.30 80
3 04/28/2025 08:53:42 0.27,-108.36 1.20,-112.67 489.92 80
4 04/29/2025 08:37:37 0.29,-108.36 0.24,-108.13 26.91 80
5 05/01/2025 20:38:12 -0.27,-108.38 -0.40,-108.91 60.86 80
6 05/02/2025 20:22:09 -0.30,-108.38 0.62,-104.39 456.16 80
7 05/04/2025 08:41:18 0.25,-108.37 0.53,-109.66 147.08 80
8 05/05/2025 08:25:14 0.28,-108.38 -0.44,-105.13 370.20 80
9 05/06/2025 20:44:33 -0.22,-108.40 -0.66,-110.45 233.79 80
10 05/07/2025 20:28:28 -0.25,-108.40 0.31,-105.92 283.75 80
11 05/09/2025 08:47:38 0.18,-108.40 0.84,-111.19 319.05 80
